CAPE
10 12 11 12 9 4 6 11 14 7 4 2 1 1 1 0 0 0 0 0 0 0 0 0 0 0 0 0 0 0 0 0 0 2 0 2 16 10 13 1 0 0 3 0 0
8 8 11 11 9 10 9 8 5 6 6 5 3 0 0 0 0 0 0 0 0 0 0 0 0 0 0 0 0 0 0 0 0 5 16 15 16 21 23 28 0 0 3 10 27
4 6 4 5 7 10 9 10 10 9 5 3 1 1 0 0 0 0 0 0 0 0 0 0 0 0 0 0 0 0 0 0 29 44 11 47 29 32 36 54 25 0 0 1 10
13 7 7 4 2 3 1 2 5 10 8 5 5 0 0 0 0 0 0 0 0 0 0 0 0 0 0 0 0 1 0 0 10 28 16 16 13 34 35 42 21 0 0 0 11
18 15 14 15 12 8 5 2 2 2 3 5 8 6 0 0 0 0 0 0 0 0 0 0 0 0 0 0 0 0 0 0 1 4 12 20 1 4 0 4 0 0 0 2 15
17 15 14 14 11 9 12 6 1 0 1 4 11 11 0 0 0 0 0 0 0 0 0 0 0 0 0 0 0 0 0 0 0 0 4 23 0 3 2 4 0 0 1 3 7
18 23 19 18 14 4 10 6 0 0 1 5 11 9 0 0 0 0 0 0 0 0 0 0 0 0 0 0 0 1 7 6 2 1 1 14 0 0 0 0 0 0 0 9 0
12 19 5 10 12 10 7 5 1 1 2 5 9 5 0 0 0 0 0 0 0 0 0 0 0 0 0 0 0 0 20 4 0 0 4 44 0 0 0 4 5 0 2 1 0
37 34 21 19 10 2 1 0 0 0 1 1 3 2 0 0 0 0 0 0 0 0 0 0 0 0 0 0 0 0 1 0 0 7 26 67 0 1 0 0 1 16 1 0 0
31 23 18 5 3 3 1 0 0 0 0 1 1 3 0 0 0 0 0 0 0 0 0 0 0 0 0 0 0 0 0 0 0 0 38 51 32 37 0 0 0 1 10 0 0
12 14 15 15 8 1 0 0 2 9 42 0 0 0 0 0 0 0 0 0 0 0 0 0 0 0 0 0 0 0 0 0 0 1 22 0 27 60 24 6 3 0 0 0 0
3 2 5 8 2 0 0 0 4 1 1 0 0 0 0 0 0 0 0 0 0 0 0 0 0 0 0 0 0 0 0 0 0 0 47 24 41 35 17 8 0 0 0 0 0
12 8 4 9 0 3 1 4 1 12 19 0 0 0 0 0 0 0 0 0 0 0 0 0 0 0 0 0 0 0 0 0 0 0 15 17 6 0 0 0 0 0 0 0 0
8 13 11 5 0 2 14 7 13 28 15 0 1 0 0 1 0 0 0 0 0 0 0 0 0 0 0 0 0 0 0 0 0 1 8 3 0 0 0 0 0 0 0 0 0
7 18 19 7 6 3 16 34 37 49 17 0 10 49 6 5 8 9 26 0 0 0 0 0 0 0 0 0 0 0 0 0 0 0 0 0 0 0 0 0 0 0 0 0 0
7 15 1 12 29 22 56 60 59 105 54 30 20 17 53 32 23 8 27 45 25 2 0 0 0 0 0 0 0 0 0 1 12 0 0 0 0 0 0 0 0 0 0 0 0
3 0 2 23 111 85 96 111 138 143 7 17 39 17 46 36 24 19 13 37 88 44 1 0 0 1 0 0 0 0 7 8 1 0 0 0 0 0 0 0 0 0 0 0 82
1 0 14 58 77 117 176 264 198 109 138 50 39 28 18 23 29 18 57 49 39 43 59 0 0 0 0 0 0 0 0 0 0 0 0 0 0 0 0 0 0 0 0 158 361
0 49 34 112 117 165 168 313 105 162 139 124 142 114 120 42 63 47 47 65 139 42 137 66 1 0 0 0 0 0 1 0 1 7 9 9 1 0 0 0 0 0 0 230 491
10 24 63 22 92 347 413 128 139 117 85 138 120 149 128 78 105 113 64 91 43 0 20 97 72 1 3 0 0 1 0 0 0 2 15 13 15 0 1 1 0 14 5 131 538
10 27 66 5 161 307 337 170 151 47 98 139 161 142 150 120 137 131 63 99 9 6 4 4 108 74 26 26 0 0 7 0 0 0 14 26 10 0 1 24 9 11 77 473 615
21 72 0 20 247 278 156 98 36 133 93 122 141 157 165 122 130 148 76 93 0 0 34 128 71 143 61 44 1 0 3 0 1 0 1 40 25 0 0 11 118 188 403 580 508
31 22 12 7 121 142 134 132 118 194 121 90 107 152 193 178 150 138 133 85 1 27 105 90 121 24 170 89 13 17 1 8 1 17 20 16 0 0 6 44 85 193 460 506 456
23 71 62 66 15 29 34 156 181 133 175 127 162 131 159 134 120 163 120 37 0 10 31 46 58 61 139 83 19 27 20 18 6 17 28 0 11 9 35 55 107 308 495 414 333
32 19 17 47 43 14 22 58 131 152 107 115 187 136 146 135 129 121 127 63 5 3 17 50 10 0 4 8 100 27 17 13 20 20 13 5 1 3 65 8 5 239 369 340 343
18 19 19 30 25 12 41 93 48 104 126 130 154 153 161 147 113 137 71 64 31 30 52 24 38 0 2 4 26 58 28 16 22 9 2 3 0 0 0 2 0 46 229 357 370
29 28 46 10 17 23 46 19 24 28 148 128 78 134 213 136 153 125 90 32 33 18 10 48 78 72 9 15 11 57 35 19 15 2 5 0 0 0 8 13 13 8 49 324 400
CIN
0 0 0 0 0 0 0 0 0 0 0 0 0 0 0 0 0 0 0 0 0 0 -1 0 0 0 0 0 0 0 0 0 0 -1 0 -2 -1 -2 -1 -10 0 0 0 0 0
0 0 0 0 0 0 0 0 0 0 0 0 0 0 0 0 0 0 0 0 0 0 0 0 0 0 0 0 0 0 0 0 0 -1 -2 -1 -1 -1 -1 -2 0 0 -12 -2 0
0 0 0 0 0 0 0 0 0 0 0 0 0 0 0 0 0 0 0 0 0 0 0 0 0 0 0 0 0 0 0 0 -1 -2 -2 -2 0 -1 0 -1 -2 0 -2 -3 -26
0 0 0 0 0 0 0 0 0 0 0 0 0 0 0 0 0 0 0 0 0 0 0 0 0 0 0 0 0 -4 0 0 -3 -2 -3 0 0 -1 -1 -1 0 0 0 0 -23
-1 0 0 0 0 0 0 0 0 0 0 0 0 0 0 0 0 0 0 0 0 0 0 0 0 0 0 0 0 0 0 0 0 -8 -4 -1 0 0 0 -1 0 0 0 -30 -18
-2 0 0 0 0 0 0 0 0 0 0 0 0 -1 0 0 0 0 0 0 0 0 0 0 0 0 0 0 0 0 0 0 0 0 -3 -1 0 0 0 -1 0 0 -21 -28 -20
0 0 0 0 0 0 0 0 0 0 0 0 0 0 0 0 0 0 0 0 0 0 0 0 0 0 0 0 0 0 0 0 0 0 0 -1 0 0 0 0 0 0 -1 -24 -2
-1 0 0 0 0 0 0 0 0 0 0 0 0 0 0 0 0 0 0 0 0 0 0 0 0 0 0 0 0 0 0 0 0 0 0 -1 0 0 0 0 -4 0 -1 0 0
0 0 0 0 0 0 0 0 0 0 0 0 0 0 0 0 0 0 0 0 0 0 0 0 0 0 0 0 0 0 0 0 0 0 0 -1 0 0 0 0 -10 -5 0 0 0
0 0 0 0 0 0 0 0 0 0 0 0 0 0 0 0 0 0 0 0 0 0 0 0 0 0 0 0 0 0 0 0 0 0 -1 0 -1 0 0 0 0 -3 -1 0 0
0 0 0 0 0 0 0 0 -1 -11 0 0 0 0 0 0 0 0 0 0 0 0 0 0 0 0 0 0 0 0 0 0 0 0 0 0 -5 0 0 0 0 0 0 0 0
0 0 0 0 0 0 0 0 0 0 0 0 0 0 0 0 0 0 0 0 0 0 0 0 0 0 0 0 0 0 0 0 0 0 0 0 0 0 -1 0 0 0 0 0 0
0 0 0 0 0 -2 0 0 0 0 0 0 0 0 0 0 0 0 0 0 0 0 0 0 0 0 0 0 0 0 0 0 0 0 -1 0 0 0 0 0 0 0 0 0 0
0 0 0 0 0 0 0 0 0 0 0 0 0 0 0 0 0 0 0 0 0 0 0 0 0 0 0 0 0 0 0 0 0 0 0 0 0 0 0 0 0 0 0 0 0
0 0 0 0 0 0 0 0 0 -1 0 0 -6 -1 0 0 0 -1 -1 0 0 0 0 0 0 0 0 0 0 0 0 0 0 0 0 0 0 0 0 0 0 0 0 0 0
0 0 0 -8 -62 -37 -3 0 0 0 0 -2 -4 -13 0 0 -1 0 -1 -1 0 0 0 0 0 0 0 0 0 0 0 0 0 0 0 0 0 0 0 0 0 0 0 0 0
0 0 0 -57 -3 -6 -1 0 0 0 -16 -11 -14 -8 -10 0 0 0 -1 -1 0 0 0 0 0 0 0 0 0 0 0 0 0 0 0 0 0 0 0 0 0 0 0 0 -22
0 0 -20 -59 -31 -23 0 0 0 0 0 -1 -1 0 -3 0 0 0 0 0 -1 -1 0 0 0 0 0 0 0 0 0 0 0 0 0 0 0 0 0 0 0 0 0 -29 -56
0 -56 -59 -6 -21 -17 -3 0 -1 0 0 0 0 0 0 -2 -2 -2 0 -1 -2 -21 -1 0 0 0 0 0 0 0 0 0 0 0 0 0 0 0 0 0 0 0 0 -17 -49
-7 -15 -41 -32 -11 0 0 -3 -1 0 0 0 0 -4 0 -1 -1 -1 0 -7 -23 0 0 -1 0 0 0 0 0 0 0 0 0 0 0 0 -1 0 0 -6 0 -25 -7 -20 -65
-9 -14 -14 -48 0 0 0 0 0 0 0 0 0 0 0 0 0 0 -2 0 -48 -16 -3 -7 0 -1 0 0 0 0 0 0 0 0 0 0 -1 -1 -1 -1 -9 0 -1 -29 -56
0 -2 0 -40 0 0 0 0 -14 0 -1 0 -1 0 0 0 0 0 -3 0 0 0 0 -1 -6 0 -2 0 0 0 0 0 0 0 0 0 -1 0 0 -35 -15 0 -11 -44 -59
0 0 0 -2 -2 0 0 0 -1 0 0 0 -1 0 0 0 0 -1 0 -6 -8 0 0 -2 -4 -36 -7 -1 0 0 0 0 0 0 0 0 0 0 -24 -20 -31 -1 -14 -54 -70
0 0 0 -1 0 0 -3 0 0 0 0 -1 0 0 0 0 -2 -1 0 0 0 0 0 0 -6 -22 -11 -15 0 0 0 0 0 0 0 0 0 -5 -8 -9 -27 -30 -44 -66 -61
0 0 0 0 0 0 0 0 0 0 -1 -2 0 -1 0 0 0 -1 0 0 -6 -1 0 -2 -39 0 0 -110 -28 -1 0 0 0 0 0 0 0 -1 -1 -4 -60 -55 -57 -46 -47
0 0 0 0 0 0 0 0 0 -1 0 0 0 0 0 0 0 0 0 0 -1 0 0 -5 -65 0 0 0 -46 -1 -1 -1 0 0 0 0 0 0 0 -1 -1 -48 -57 -34 -36
0 0 0 0 0 0 0 0 0 -4 0 0 0 0 0 0 0 -1 0 0 0 0 0 0 -9 0 0 0 -32 -2 0 0 0 0 0 0 0 0 -5 -3 -16 -107 -71 -20 -17
Wind_Speed
15 15 14 14 15 16 16 16 15 14 15 16 18 18 18 19 22 18 17 11 8 15 9 11 15 17 14 19 23 18 16 18 22 22 16 15 15 10 2 11 16 11 14 13 16
17 17 16 15 15 15 15 16 17 17 16 15 17 17 19 19 20 21 17 10 11 13 14 17 19 18 18 20 20 20 18 25 23 20 17 19 20 17 17 11 16 14 19 18 14
18 18 18 18 18 15 15 15 15 15 15 15 15 17 19 21 15 11 14 5 9 15 20 19 20 21 25 23 23 25 24 24 23 23 24 24 25 21 21 21 19 16 18 20 20
15 16 18 19 20 20 20 18 16 15 15 15 15 16 18 13 10 9 5 5 3 13 22 24 26 27 25 27 26 30 30 28 28 27 27 31 28 24 24 22 21 17 18 20 21
15 16 17 18 18 19 19 20 20 19 16 14 13 13 14 12 16 0 8 9 11 11 23 26 30 29 33 28 27 32 30 30 29 30 32 28 28 29 26 25 24 21 18 21 20
17 17 18 19 19 19 18 17 17 19 19 17 14 11 14 23 10 10 12 13 14 13 17 25 30 28 32 33 33 30 31 31 31 32 30 31 32 27 26 24 26 23 23 23 21
17 17 18 19 19 19 19 18 18 19 20 18 15 12 17 22 16 17 15 16 17 15 19 17 25 29 28 33 31 31 35 33 32 29 29 22 33 32 28 25 27 26 24 24 19
18 17 20 20 20 19 20 20 22 23 22 19 14 14 16 16 18 19 21 21 19 19 20 20 16 26 27 24 28 35 30 31 31 32 28 26 33 28 25 26 25 20 21 16 18
17 17 19 19 19 22 23 26 26 22 14 8 11 15 19 4 17 13 19 18 18 20 19 17 17 20 23 24 23 26 28 36 31 29 27 30 39 28 24 25 25 29 16 18 20
18 18 18 19 20 21 22 29 17 9 10 11 11 9 16 14 3 3 4 12 15 17 21 22 15 17 19 23 30 30 34 30 33 27 28 34 35 30 20 23 25 27 24 21 22
21 19 18 19 20 21 20 16 5 10 15 13 16 14 21 13 12 14 10 12 13 15 26 24 21 28 44 35 30 29 27 33 31 26 28 31 31 23 21 25 27 26 28 23 22
21 22 21 21 21 23 15 11 8 9 14 21 23 25 23 21 21 20 16 15 17 21 22 26 32 49 24 31 31 32 31 33 28 28 23 25 28 25 23 24 25 27 27 25 23
18 19 21 21 23 14 11 9 9 11 11 23 22 19 15 12 19 19 21 21 23 23 26 31 45 24 32 32 32 32 33 27 30 24 21 22 27 28 25 27 28 28 29 28 27
20 19 20 20 15 13 10 7 9 8 9 21 11 8 10 8 12 14 14 18 24 29 23 30 33 35 32 35 35 34 28 27 25 22 17 21 24 25 18 24 23 23 22 21 21
22 22 19 11 12 8 11 9 9 4 8 5 9 7 6 9 10 4 6 15 20 24 25 30 31 35 35 42 30 34 24 25 25 21 23 24 20 16 21 22 23 23 23 21 20
24 22 16 5 10 9 10 7 7 8 6 3 1 8 7 10 12 11 9 14 13 19 28 32 27 29 40 33 29 28 27 25 20 17 22 22 21 20 21 20 19 19 15 19 19
25 20 12 7 9 12 10 8 6 8 4 7 10 13 15 17 15 17 14 15 15 16 22 29 31 28 30 33 36 27 23 16 17 19 21 18 21 22 19 18 17 16 11 5 10
25 21 6 6 8 7 9 6 8 14 14 19 19 16 20 16 20 16 11 15 20 16 19 24 28 33 27 30 36 31 28 17 28 12 15 22 18 16 17 10 8 11 12 10 8
29 6 4 6 7 4 4 7 7 15 17 14 18 16 18 13 11 9 15 16 6 9 7 18 30 28 35 25 27 39 30 30 24 20 15 13 17 15 17 14 9 10 14 14 12
10 5 2 7 4 7 6 7 10 11 12 15 17 13 16 18 10 14 11 4 6 3 9 17 22 31 27 29 31 33 27 24 23 24 14 14 10 8 2 7 13 10 13 13 14
9 2 6 7 5 5 6 10 15 14 14 10 20 19 18 12 12 16 4 6 3 12 11 21 5 16 30 34 30 26 25 30 20 18 15 11 8 2 5 2 15 14 13 15 17
7 4 6 3 4 3 6 15 13 17 12 17 12 17 17 15 15 18 6 4 2 12 13 16 7 13 27 28 29 29 27 31 16 22 17 11 4 4 9 7 5 4 12 15 16
7 3 7 1 5 8 15 16 12 12 13 14 9 14 18 15 9 6 6 9 8 10 6 9 11 14 9 20 29 32 34 26 27 16 18 9 4 8 9 6 1 2 14 15 17
7 5 2 1 2 8 14 15 15 12 16 10 17 11 13 15 3 7 9 1 6 8 16 10 15 18 6 11 21 28 33 30 28 17 18 18 12 14 14 12 10 7 12 15 17
3 7 4 6 9 12 15 15 14 14 7 17 11 12 12 15 18 14 6 12 2 6 6 6 18 25 6 24 24 24 27 24 31 19 16 18 14 14 13 13 8 9 12 15 16
6 5 9 12 8 11 11 11 14 17 10 13 12 18 16 15 15 18 16 11 6 7 5 9 11 17 17 21 35 23 31 27 23 27 17 12 18 11 4 11 7 9 10 13 15
3 4 2 10 6 8 9 14 20 18 10 12 14 15 18 14 16 19 18 15 14 14 12 8 6 6 17 20 27 14 19 27 25 24 16 12 6 8 6 7 13 9 6 10 13
Wind_Direction
357 357 357 352 350 346 345 340 332 334 335 339 337 334 327 317 305 266 245 244 198 167 203 207 211 209 221 233 228 236 255 251 253 256 263 268 237 259 141 291 302 289 292 294 295
353 352 351 348 347 343 339 336 334 337 332 333 333 327 322 319 299 273 259 146 147 171 210 215 210 207 217 219 225 228 238 242 257 265 271 287 289 295 269 246 275 269 279 263 296
347 346 343 343 339 337 335 331 330 326 324 322 324 324 319 311 287 265 20 108 166 193 237 236 231 214 229 230 220 232 240 252 257 265 280 288 274 279 277 277 277 291 294 300 297
341 339 340 337 334 332 332 329 325 320 320 317 316 317 316 298 258 81 43 37 298 234 235 236 236 233 227 233 231 243 237 245 259 268 283 280 288 272 269 275 284 287 287 289 290
338 341 337 332 327 323 321 321 320 316 311 305 302 308 300 238 246 226 191 221 280 218 221 222 225 226 232 233 241 236 242 251 256 264 269 272 275 279 271 279 283 287 287 277 275
344 338 333 330 326 321 314 309 306 303 304 304 300 293 262 265 281 295 303 279 259 262 222 232 232 230 240 239 236 243 249 253 258 264 267 268 270 264 259 265 277 275 273 270 276
336 336 331 327 325 319 313 306 299 294 294 291 284 268 269 259 293 295 278 270 271 270 265 240 241 244 242 246 248 255 256 259 255 256 262 269 270 261 268 268 271 270 268 258 266
331 329 330 327 322 316 310 302 293 288 289 284 260 253 260 270 279 255 252 256 249 247 256 279 260 250 245 263 248 250 255 257 249 250 247 246 260 265 272 270 273 272 269 269 273
332 330 326 323 321 317 313 303 295 285 272 239 216 225 262 101 234 252 252 259 264 247 234 242 264 248 231 240 253 238 243 241 249 245 250 244 255 257 263 268 261 262 269 269 271
334 334 329 326 321 315 307 291 276 284 227 201 243 236 244 257 249 295 268 265 258 244 225 217 229 235 230 219 225 227 236 244 255 255 248 246 255 258 274 268 267 277 273 260 275
338 334 330 323 318 313 311 293 215 204 218 268 293 233 294 270 277 261 259 260 237 234 222 203 211 219 219 218 236 242 246 247 249 247 238 257 269 264 250 255 263 274 279 272 269
338 335 331 325 317 311 290 322 357 308 293 280 270 261 260 272 271 260 251 237 233 229 220 214 217 222 221 229 229 243 252 252 263 265 260 260 268 271 270 282 285 280 278 277 278
332 327 325 323 313 289 321 313 328 310 278 281 266 259 248 236 244 243 233 224 239 230 226 222 226 227 222 231 234 231 235 245 255 262 263 273 273 272 268 265 262 262 263 260 258
328 322 321 327 282 332 292 20 295 336 278 263 195 203 184 225 240 224 247 235 226 238 234 235 238 235 224 230 228 236 230 242 255 266 264 251 266 258 263 265 268 273 271 268 259
328 321 316 309 312 304 350 316 340 309 276 112 117 94 262 237 328 181 251 213 244 236 232 240 229 233 236 227 227 241 234 238 238 246 260 253 260 273 265 265 264 259 255 259 251
327 330 322 231 215 282 301 311 261 236 246 54 111 347 257 261 253 269 226 206 248 241 254 244 247 234 234 243 228 238 232 241 244 250 246 242 253 266 268 276 284 284 260 249 230
328 328 304 309 337 331 312 266 249 264 358 46 343 316 283 291 280 266 261 249 231 210 235 243 246 244 239 222 238 224 216 221 224 225 245 242 246 260 274 275 280 291 256 226 105
323 312 195 317 323 322 290 274 262 347 11 349 337 312 294 277 271 271 253 261 250 270 254 226 228 233 234 231 214 222 206 213 213 214 231 223 243 256 254 253 271 263 235 130 157
311 224 253 15 327 315 276 270 343 3 343 328 315 298 278 322 306 277 259 259 338 19 289 266 232 226 226 229 236 211 213 216 248 218 245 236 222 238 248 248 246 233 186 150 161
304 283 278 326 319 274 277 295 337 355 337 324 314 306 317 319 272 270 271 324 309 268 291 282 257 221 223 219 240 224 208 204 224 239 224 242 241 238 186 199 174 197 179 154 154
261 270 82 325 288 287 300 311 332 342 312 315 312 311 311 327 300 288 223 159 239 301 275 287 287 261 234 202 214 215 200 213 220 229 229 235 248 182 198 227 181 196 163 151 161
282 278 65 308 290 278 297 329 305 292 303 305 339 300 310 304 280 290 219 350 264 313 293 274 252 265 224 208 215 215 214 204 217 206 237 212 146 80 174 242 357 328 124 152 157
291 279 141 281 347 331 322 324 337 328 312 307 293 303 305 310 306 316 342 51 356 309 317 1 236 258 222 226 205 215 209 202 220 221 204 218 175 211 141 105 72 132 140 154 154
292 297 105 41 20 316 323 311 327 332 323 317 308 311 293 299 245 274 306 106 4 296 290 295 262 256 254 223 197 210 202 202 201 218 185 222 128 146 140 115 87 121 141 154 161
293 27 12 307 328 319 299 291 317 329 324 298 297 299 294 308 311 320 298 302 178 241 248 262 249 244 259 300 281 209 209 198 192 203 220 181 197 173 144 94 90 114 159 158 160
327 351 338 299 284 309 302 308 332 325 327 312 326 318 310 294 305 303 315 313 280 240 237 278 275 262 248 287 284 191 212 197 197 209 209 170 200 206 262 106 67 94 170 169 166
356 317 335 288 280 300 308 322 310 311 302 285 301 313 304 319 318 307 300 290 279 288 298 287 327 175 243 256 268 207 212 187 195 199 211 194 206 174 141 61 44 25 11 183 174